TimeCDT,TemperatureF,Dew PointF,Humidity,Sea Level PressureIn,VisibilityMPH,Wind Direction,Wind SpeedMPH,Gust SpeedMPH,PrecipitationIn,Events,Conditions,WindDirDegrees,DateUTC
12:52 AM,37.0,16.0,42,29.85,10.0,NW,10.4,-,N/A,,Clear,310,2012-11-01 05:52:00
1:52 AM,36.0,15.1,43,29.85,10.0,NW,8.1,-,N/A,,Clear,310,2012-11-01 06:52:00
2:52 AM,36.0,14.0,41,29.85,10.0,WNW,6.9,-,N/A,,Clear,300,2012-11-01 07:52:00
3:52 AM,34.0,14.0,44,29.85,10.0,NW,8.1,-,N/A,,Clear,310,2012-11-01 08:52:00
4:52 AM,34.0,16.0,48,29.84,10.0,NW,6.9,-,N/A,,Mostly Cloudy,310,2012-11-01 09:52:00
5:52 AM,37.0,14.0,39,29.85,10.0,WNW,9.2,-,N/A,,Mostly Cloudy,300,2012-11-01 10:52:00
6:52 AM,37.0,15.1,41,29.85,10.0,WNW,6.9,-,N/A,,Mostly Cloudy,300,2012-11-01 11:52:00
7:52 AM,37.0,17.1,44,29.87,10.0,WNW,6.9,-,N/A,,Scattered Clouds,290,2012-11-01 12:52:00
8:52 AM,39.0,18.0,43,29.88,10.0,WNW,5.8,-,N/A,,Scattered Clouds,300,2012-11-01 13:52:00
9:52 AM,42.1,16.0,35,29.88,10.0,NW,10.4,-,N/A,,Mostly Cloudy,320,2012-11-01 14:52:00
10:52 AM,45.0,17.1,33,29.87,10.0,NNW,5.8,-,N/A,,Mostly Cloudy,330,2012-11-01 15:52:00
11:52 AM,46.9,19.9,34,29.86,10.0,WNW,10.4,-,N/A,,Mostly Cloudy,290,2012-11-01 16:52:00
12:52 PM,50.0,25.0,38,29.84,10.0,WNW,10.4,16.1,N/A,,Scattered Clouds,290,2012-11-01 17:52:00
1:52 PM,51.1,21.9,32,29.82,10.0,WNW,13.8,18.4,N/A,,Mostly Cloudy,300,2012-11-01 18:52:00
2:52 PM,46.9,21.9,37,29.83,10.0,NW,13.8,-,N/A,,Mostly Cloudy,310,2012-11-01 19:52:00
3:52 PM,46.0,28.9,51,29.84,10.0,NNW,6.9,-,0.00,,Overcast,340,2012-11-01 20:52:00
4:52 PM,45.0,28.0,52,29.86,10.0,NNW,11.5,-,N/A,,Mostly Cloudy,330,2012-11-01 21:52:00
5:52 PM,45.0,28.0,52,29.86,10.0,NW,5.8,-,N/A,,Mostly Cloudy,320,2012-11-01 22:52:00
6:52 PM,45.0,30.0,56,29.88,10.0,NNW,9.2,-,N/A,,Mostly Cloudy,330,2012-11-01 23:52:00
7:52 PM,45.0,30.0,56,29.89,10.0,NNW,8.1,-,N/A,,Overcast,340,2012-11-02 00:52:00
8:52 PM,44.1,30.0,58,29.90,10.0,NNW,12.7,16.1,N/A,,Overcast,330,2012-11-02 01:52:00
9:52 PM,44.1,30.0,58,29.91,10.0,NNW,10.4,-,N/A,,Overcast,340,2012-11-02 02:52:00
10:52 PM,42.1,30.0,62,29.92,10.0,NNW,9.2,-,N/A,,Partly Cloudy,330,2012-11-02 03:52:00
11:52 PM,39.9,30.0,68,29.94,10.0,NNW,6.9,-,N/A,,Partly Cloudy,340,2012-11-02 04:52:00